Location: Unspecified
(0.0000°N, 0.0000°E)
Time: 04:18:54
(UTC+02:00)

Cosmos 1295 Rocket - Visible Passes

Search period start: 27 May 2016 00:00
Search period end: 06 June 2016 00:00
Orbit: 944 x 994 km, 82.9° (Epoch: 25 May)

Date Brightness Start Highest point End Pass type
(mag) Time Alt. Az. Time Alt. Az. Time Alt. Az.
27 May 4.7 05:43:27 53° SE 05:44:36 64° E 05:50:36 10° NNE visible
28 May 4.3 06:07:38 60° WSW 06:07:58 61° W 06:13:58 10° N visible
29 May 6.5 04:47:10 21° E 04:47:10 21° E 04:50:50 10° NE visible
29 May 5.3 06:31:44 28° W 06:31:44 28° W 06:36:28 10° NNW visible
30 May 5.6 05:11:12 38° ENE 05:11:12 38° ENE 05:15:33 10° NNE visible
30 May 6.2 06:55:47 12° WNW 06:55:47 12° WNW 06:57:16 10° WNW visible
31 May 5.1 05:35:12 45° N 05:35:12 45° N 05:39:16 10° N visible
01 Jun 7.2 04:14:34 10° ENE 04:14:34 10° ENE 04:14:44 10° ENE visible
01 Jun 5.6 05:59:08 27° NW 05:59:08 27° NW 06:02:12 10° NNW visible
02 Jun 6.7 04:38:27 18° NE 04:38:27 18° NE 04:40:17 10° NNE visible
02 Jun 6.3 06:23:01 13° NW 06:23:01 13° NW 06:24:03 10° NW visible
03 Jun 6.3 05:02:18 23° NNE 05:02:18 23° NNE 05:04:24 10° N visible
04 Jun 6.3 05:26:06 19° NNW 05:26:06 19° NNW 05:27:43 10° N visible
05 Jun 6.6 05:49:52 11° NNW 05:49:52 11° NNW 05:50:09 10° NNW visible
